OneWeb SL0139

operational
NORAD ID: 47261 Int'l Des: 2020-100 Owner: ONEWEB Country: UK Constellation: oneweb
LEOCIRCULARPOLARONEWEB_TYPE

Über OneWeb SL0139

Beschreibung wird geladen...

Live-Position

3D-Globus wird geladen...

Nächste Überflüge

Höhenverlauf

Altitude vs Time

uPlot chart will show altitude changes over time

Zweizeiliger Elementsatz

1 47261U 20100D 25258.66963340 -.00000408 00000-0 -11702-2 0 9999
2 47261 87.8907 45.1949 0001684 97.0453 263.0867 13.12442743228555
Epoch: 15. Sept. 2025 • Age: 16 hours

Aktueller Status

Höhe 1242.9 km
Geschwindigkeit 7.23 km/s
Subsatellitenpunkt -78.02°S, 82.53°W
Startdatum 18. Dez. 2020
Alter 4.7 years
Typ internet

Technische Details

Klassifizierung Payload
Masse 148.00 kg
Trockenmasse 140.00 kg
Gesamtmasse 148.00 kg
Länge 1.30 m
Durchmesser 1.00 m
Spannweite 5.00 m
Form Trapezoid+2 pan
Hersteller ONEWUS
Bus-Typ ARROW
Phasenstatus In Orbit
Besitzer/Staat ONEWEB/UK

Große Konstellationen

Loading constellations...